Location: ??????
(41.3164°N, 22.6615°E)
Time: 18:33:22
(UTC+00:00)

CAS-4A - Pass Details

Date: 10 July 2022
Orbit: 521 x 537 km, 43.0° (Epoch: 11 August)

Event Time Altitude Azimuth Distance (km) Brightness Sun altitude
Exits shadow 00:11:42 74° 314° (NW) 545 ? -22.6°
Maximum altitude 00:12:00 81° 12° (NNE) 531 ? -22.5°
Drops below altitude 10° 00:16:01 10° 100° (E) 1,755 ? -22.2°
Sets 00:18:14 0° 101° (E) 2,644 ? -22.0°
